Regional Weather Roundup
Issued by NWS

Home | Current Version | Previous Version | Text Only | Print | Product List | Glossary Off
Versions: 1 2 3 4 5 6 7 8 9 10 11 12 13 14 15 16 17 18 19 20 21 22 23 24 25 26 27 28 29 30 31 32 33 34 35 36 37 38 39 40 41 42 43 44 45 46 47 48 49 50

000
ASUS43 KIND 012109
RWRIN

WEATHER ROUNDUP FOR INDIANA
NATIONAL WEATHER SERVICE INDIANAPOLIS IN
500 PM EDT SAT AUG 01 2015

NOTE: "FAIR" INDICATES FEW OR NO CLOUDS BELOW 12,000 FEET WITH NO
SIGNIFICANT WEATHER AND/OR OBSTRUCTIONS TO VISIBILITY.

* - STATION DOES NOT REPORT WEATHER SUCH AS PRECIPITATION OR FOG.

+ - STATION NOT QUALITY CONTROLLED BY THE NATIONAL WEATHER SERVICE.
    USE DATA WITH CAUTION...ESPECIALLY DEWPOINT AND RELATIVE
    HUMIDITY OBSERVATIONS.

INZ001>003-010>013-019-020-012200-
NORTHWEST INDIANA

CITY           SKY/WX    TMP DP  RH WIND       PRES   REMARKS
GARY /AIRPORT/ PTSUNNY   86  55  35 W12G26    29.93F
KNOX *+        MOSUNNY   82  55  39 W9        29.93F
LA PORTE +     SUNNY     84  56  37 S5        29.95F
MICHIGAN CITY+ SUNNY     82  52  34 SW8       29.94F
MONTICELLO +   MOSUNNY   83  60  44 W9G17     29.96F
RENSSELAER +   SUNNY     82  57  42 W9        29.96F
VALPARAISO     PTSUNNY   84  57  39 SW9       29.94F

$$

LMZ046-743>745-012200-
SOUTHERN LAKE MICHIGAN

STATION/POSITION TIME  TEMP    WIND        PRES    WAVE
                       AIR SEA DIR/SP/G            HT
                 (UTC) (F)     (DEG/KT/KT) (MB)    (FT)
BURNS HARBOR     2000   82      70/  5/  6 1014.2F
MICHIGAN CITY    2000   78      20/  1/  1   N/A
5NW MICH CITY    2100   79 76  110/  2/  4   N/A     1

$$

INZ004-005-014>016-021>024-012200-
NORTH CENTRAL INDIANA

CITY           SKY/WX    TMP DP  RH WIND       PRES   REMARKS
ELKHART        MOSUNNY   81  50  34 N8        29.96F
GOSHEN         PTSUNNY   81  55  40 NW8       29.95F
LOGANSPORT +   PTSUNNY   82  48  30 SW9       29.97F
PERU/GRISSOM   MOSUNNY   82  56  40 W7        29.96F
ROCHESTER +    SUNNY     86  52  30 NW5       29.96F
SOUTH BEND     SUNNY     83  53  35 N5        29.95F
WARSAW +       MOSUNNY   81  52  36 NW8       29.96F

$$

INZ006>009-017-018-025>027-012200-
NORTHEAST INDIANA

CITY           SKY/WX    TMP DP  RH WIND       PRES   REMARKS
ANGOLA *+      MOSUNNY   81  55  41 NW8       29.95F
AUBURN +       MOSUNNY   82  48  30 W12       29.96S
FORT WAYNE     PTSUNNY   80  54  40 W13       29.96F
HUNTINGTON +   CLOUDY    79  54  40 NW6       29.97S

$$

INZ028-029-035-036-043>045-051>053-012200-
WEST CENTRAL INDIANA

CITY           SKY/WX    TMP DP  RH WIND       PRES   REMARKS
CRAWFORDSVL +  PTSUNNY   79  51  37 SW3         N/A
GREENCASTLE +  PTSUNNY   79  50  36 CALM      30.01F
LAFAYETTE      MOSUNNY   81  59  47 W8        29.97F
TERRE HAUTE    PTSUNNY   85  55  35 VRB5      29.99F

$$

INZ030>032-037>040-046>048-054>057-064-065-012200-
CENTRAL INDIANA

CITY           SKY/WX    TMP DP  RH WIND       PRES   REMARKS
COLUMBUS       SUNNY     82  45  26 W7        29.99F
FISHERS *+     MOSUNNY   81  59  47 N3        29.99
FRANKFORT +    MOSUNNY   82  60  46 SW7       30.01F
GREENWOOD *+   PTSUNNY   81  50  34 NW3       30.00F
INDIANAPOLIS   PTSUNNY   83  54  36 NW6       29.98F
-EAGLE CREEK   MOSUNNY   82  56  40 NW7       29.99F
KOKOMO *+      PTSUNNY   84  55  37 W7        29.97F
MARION +       PTSUNNY   81  53  37 W6        29.98F HAZE
MT COMFORT *+  MOSUNNY   82  37  20 NW8       29.99F
SHELBYVILLE    MOSUNNY   83  56  39 NW6       29.98F
ZIONSVILLE +   MOSUNNY   82  54  38 W6        30.00F

$$

INZ033-034-041-042-049-050-058-059-012200-
EAST CENTRAL INDIANA

CITY           SKY/WX    TMP DP  RH WIND       PRES   REMARKS
MUNCIE         SUNNY     80  55  42 NW6       29.98F

$$

INZ060-061-067>069-081>083-085>088-012200-
SOUTHWEST INDIANA

CITY           SKY/WX    TMP DP  RH WIND       PRES   REMARKS
EVANSVILLE     MOSUNNY   88  56  33 N7        30.00F
HUNTINGBURG *+ MOSUNNY   86  57  37 NW7       30.00S
WASHINGTON +   MOSUNNY   83  49  30 N6        29.99F

$$

INZ062-063-066-070>080-084-089>092-012200-
SOUTH CENTRAL AND SOUTHEAST INDIANA

CITY           SKY/WX    TMP DP  RH WIND       PRES   REMARKS
BLOOMINGTON    PTSUNNY   81  58  45 NW6       30.01F
MADISON *+     PTSUNNY   81  52  36 NW5       30.02S
NORTH VERNON + PTSUNNY   84  48  28 CALM      30.00F
SEYMOUR +      PTSUNNY   84  55  37 NW5       29.99F

$$




USA.gov is the U.S. government's official web portal to all federal, state and local government web resources and services.